Regional Weather Roundup
Issued by NWS

Home | Current Version | Previous Version | Text Only | Print | Product List | Glossary On
Versions: 1 2 3 4 5 6 7 8 9 10 11 12 13 14 15 16 17 18 19 20 21 22 23 24 25 26 27 28 29 30 31 32 33 34 35 36 37 38 39 40 41 42 43 44 45 46 47 48 49 50
000
ASUS43 KDTX 212010
RWRMI
MICHIGAN HOURLY REGIONAL WEATHER ROUNDUP
NATIONAL WEATHER SERVICE DETROIT/PONTIAC MI
300 PM EST SUN JAN 21 2018

NOTE: "FAIR" INDICATES FEW OR NO CLOUDS BELOW 12,000 FEET WITH NO
SIGNIFICANT WEATHER AND/OR OBSTRUCTION TO VISIBILITY.

MIZ047>049-052>055-059>063-066>070-074>076-081>083-212100-
SOUTHEAST LOWER MICHIGAN

CITY           SKY/WX    TMP DP  RH WIND       PRES   REMARKS
ADRIAN         FOG       39  39 100 CALM      29.98F VSB<1/4
ALMA           CLOUDY    38  37  95 E3        29.98F FOG
ANN ARBOR      CLOUDY    40  39  97 CALM      29.98S FOG
BAD AXE        CLOUDY    37  34  92 CALM      30.00F FOG
CARO           CLOUDY    38  35  88 CALM      29.99F FOG
DETROIT CITY   CLOUDY    42  38  85 CALM      30.00F FOG
DETROIT        CLOUDY    41  39  93 CALM      29.99F FOG
FLINT          CLOUDY    39  36  89 CALM      29.99F FOG
GROSSE ILE     FOG       37  37  99 CALM      29.98F VSB 1/2
HILLSDALE      FOG       39  37  93 S5        29.94S VSB 1/4
HOWELL         CLOUDY    39  37  94 CALM      29.97F FOG

CITY           SKY/WX    TMP DP  RH WIND       PRES   REMARKS
JACKSON        FOG       39  38  96 CALM      29.96F VSB 1/4
LAMBERTVILLE   FOG       42  41  97 CALM      29.98F VSB 1/2
LANSING        CLOUDY    39  37  92 E3        29.98S FOG
LAPEER         CLOUDY    40  35  85 CALM      29.99F
MONROE         CLOUDY    41  39  93 CALM      29.98F FOG
MT. CLEMENS    CLOUDY    40  36  86 NE3       29.99F FOG
PONTIAC        DRIZZLE   38  38 100 CALM      29.97F FOG
PORT HOPE        N/A     33  31  92 E6        29.99F WCI  28
PORT HURON     CLOUDY    37  36  93 CALM      30.01F FOG
TRI CITIES     CLOUDY    39  36  89 CALM      29.99F FOG
MIDLAND        CLOUDY    40  35  82 CALM      29.99R
TROY           CLOUDY    40  38  91 CALM      30.01S FOG
SAGINAW HB     CLOUDY    36  34  93 E3        29.99S FOG
$$
MIZ043>046-050>051-056>058-064>065-071>073-077>080-212100-
SOUTHWEST LOWER MICHIGAN

CITY           SKY/WX    TMP DP  RH WIND       PRES   REMARKS
BATTLE CREEK   FOG       39  39 100 SE3       29.96F VSB 1/4
BENTON HARBOR  FOG       41  39  93 E5        29.93F VSB 1/2
BIG RAPIDS     CLOUDY    38  36  94 CALM      29.95F FOG
COLDWATER      FOG       41  41 100 CALM      29.96R VSB 1/4
FREMONT        LGT RAIN  37  36  93 E3        29.95S VSB 1
HOLLAND        CLOUDY    40  37  89 CALM      29.95S FOG
GRAND RAPIDS   CLOUDY    39  37  92 E5        29.95S FOG
IONIA          LGT RAIN  37  37 100 CALM      29.96S VSB 1
KALAMAZOO      FOG       41  39  93 SE3       29.95F VSB 1/2
LUDINGTON      CLOUDY    40  37  89 SE3       29.94F FOG
MARSHALL       CLOUDY    38  38  98 CALM      29.96S FOG
MOUNT PLEASANT FAIR      39  36  87 SE3       29.97F FOG
MUSKEGON       DRIZZLE   39  36  89 E7        29.95F FOG     WCI  34
SOUTH HAVEN    CLOUDY    42  40  92 SE3       29.94S FOG
$$
MIZ016>042-212100-
NORTHERN LOWER MICHIGAN

CITY           SKY/WX    TMP DP  RH WIND       PRES   REMARKS
ALPENA         CLOUDY    39  34  82 E6        29.97F WCI  35
BEAVER ISLAND  CLOUDY    37  33  87 NW3       29.98R FOG
BELLAIRE       CLOUDY    43  36  77 CALM      29.97S
CADILLAC       CLOUDY    38  37  93 SW7       29.94S FOG     WCI  33
CHARLEVOIX     CLOUDY    37  33  87 CALM      30.00S FOG
FRANKFORT      FAIR      43  35  73 S3        29.95F
GAYLORD        PTSUNNY   43  31  62 W6        29.94F
GRAYLING       FAIR      41  31  68 W6        29.96S
HARBOR SPRINGS CLOUDY    36  32  86 CALM      29.97F
HOUGHTON LAKE  FAIR      41  32  70 CALM      29.96F
MANISTEE       FAIR      43  36  76 S3        29.95S
OSCODA         FAIR      34  32  91 S6        29.98S FOG     WCI  29
PELLSTON       CLOUDY    38  32  79 N5        29.98S WCI  34
ROGERS CITY    CLOUDY    37  33  82 CALM      29.98F
TRAVERSE CITY  CLOUDY    44  35  70 NW5       29.95F
$$
MIZ007>008-015-212100-
EASTERN UPPER MICHIGAN

CITY           SKY/WX    TMP DP  RH WIND       PRES   REMARKS
KINROSS        FAIR      39  32  76 SE6       29.98S WCI  35
MACKINAC ISLAN CLOUDY    34  32  93 E6        29.98S WCI  29
NEWBERRY       CLOUDY    37  36  97 CALM      29.95F
S. S. MARIE    FAIR      38  32  79 VRB3      29.99R
MUNISING         N/A     35  33  92 N5        29.97R WCI  31
$$
MIZ004>006-011>014-085-212100-
CENTRAL UPPER MICHIGAN

CITY           SKY/WX    TMP DP  RH WIND       PRES   REMARKS
ESCANABA       CLOUDY    36  30  79 E5        29.96S WCI  32
MENOMINEE      CLOUDY    37  31  78 E5        29.95F HAZE    WCI  33
SAWYER-GWINN   CLOUDY    36  28  75 NE7       29.95S WCI  30
$$
MIZ001>003-009>011-084-212100-
WESTERN UPPER MICHIGAN

CITY           SKY/WX    TMP DP  RH WIND       PRES   REMARKS
IRON MOUNTAIN  CLOUDY    37  31  78 N5        29.92F WCI  33
HOUGHTON       CLOUDY    34  29  82 CALM      29.96F
COPPER HARBOR    N/A     32  29  88 E7        29.99S WCI  26
IRONWOOD       FAIR      36  28  73 N5        29.96S WCI  32
$$

ABBREVIATIONS USED IN REMARKS
   TC - TEMPERATURE IN CELSIUS
  WCI - WIND CHILL INDEX
   HX - HEAT INDEX
  VSB - VISIBILITY





USA.gov is the U.S. government's official web portal to all federal, state and local government web resources and services.